Other Public Products
Issued by NWS Grand Forks, ND

Home | Current Version | Previous Version | Graphics & Text | Print | Product List | Glossary On
Versions: 1 2 3 4 5 6 7 8 9 10 11 12 13 14 15 16 17 18 19 20 21 22 23 24 25 26 27 28 29 30 31 32 33 34 35 36 37 38 39 40 41 42 43 44 45 46 47 48 49 50
000
FPUS83 KFGF 261431
OPUFGF
PRAIRIE TO PINES WEATHER ROUNDUP
NATIONAL WEATHER SERVICE EASTERN NORTH DAKOTA/GRAND FORKS ND
900 AM CDT FRI MAY 26 2017

 **SATELLITE DATA USED TO AUGMENT SKY COVER AT AUTOMATED STATIONS**
 *****  WEATHER ACROSS EASTERN NORTH DAKOTA  *****

CITY           SKY/WX    TMP DP  RH WIND       PRES   REMARKS
GRAND FORKS    FAIR      62  49  62 W13       29.63R
GRAND FORKS AF FAIR      61  48  63 W10       29.63R
GRAND CITY NWS NOT AVBL
BUXTON           N/A     62  50  66 W13         N/A
DEVILS LAKE    PTSUNNY   55  46  71 W22       29.66S
FARGO          FAIR      61  49  64 W13       29.67R
WAHPETON ARPT  FAIR      59  46  63 W12       29.70R
$$

 *****  WEATHER ACROSS CENTRAL AND WESTERN NORTH DAKOTA  *****

CITY           SKY/WX    TMP DP  RH WIND       PRES   REMARKS
JAMESTOWN      FAIR      56  46  69 W15G22    29.70R
BISMARCK       CLOUDY    55  41  59 W16       29.76R
MINOT          CLOUDY    55  43  63 W13G23    29.66S
MINOT AFB      CLOUDY    54  43  67 W22G29    29.65R
GARRISON         N/A     51  41  68 W20G28    29.71R
WILLISTON      CLOUDY    53  41  63 W22       29.74R
DICKINSON      CLOUDY    49  37  63 W21G29    29.78R
HETTINGER      FAIR      51  38  60 NW26G35   29.83R
$$

 *****  OTHER OBSERVATIONS NORTHEAST NORTH DAKOTA  *****

CITY           SKY/WX    TMP DP  RH WIND       PRES   REMARKS
WALHALLA       NOT AVBL
LANGDON        FAIR      57  50  77 W20       29.63R
CAVALIER       PTSUNNY   63  48  59 W12       29.60S
GRAFTON        FAIR      63  50  63 W12       29.64R
CANDO          NOT AVBL
FORT TOTTEN      N/A     57  47  70 W7        29.95S
ROLLA          CLOUDY    52  50  93 W15       29.63R
RUGBY          NOT AVBL
 ***** THE ABOVE OBSERVATIONS ARE NON NWS ARE NOT QUALITY
        CONTROLLED AND MAY MIS-REPORT RAIN FOR SNOW...
$$

 *****  OTHER OBSERVATIONS SOUTHEAST NORTH DAKOTA *****

CITY           SKY/WX    TMP DP  RH WIND       PRES   REMARKS
COOPERSTOWN    FAIR      57  46  67 W17       29.68S
VALLEY CITY    FAIR      59  50  72 W15G21    29.71S
OAKES          NOT AVBL
GWINNER        SUNNY     59  48  67 MISG      29.72R
SHEYENNE NWR     N/A     60  49  65 NW13      29.95S
BUFFALO          N/A     59  44  57 SE10        N/A
WYNDMERE         N/A     61  48  63 W12         N/A
 ***** THE ABOVE OBSERVATIONS ARE NON NWS ARE NOT QUALITY
       CONTROLLED AND MAY MIS-REPORT RAIN FOR SNOW...
$$

  *****  WEATHER ACROSS NORTHERN MINNESOTA  *****

CITY           SKY/WX    TMP DP  RH WIND       PRES   REMARKS
FLAG ISLAND    LGT RAIN  55  52  88 S9        29.60S
WARROAD        FAIR      61  52  72 CALM      29.62S
ROSEAU         FAIR      63  52  67 CALM      29.61S
HALLOCK        FAIR      63  48  59 SW5       29.60S
THF RVR FALLS  FAIR      59  48  67 W6        29.64S
HALSTAD          N/A     61  48  62 W9          N/A
FOSSTON        FAIR      61  48  63 W5        29.66S
BAUDETTE       FAIR      63  54  72 S9        29.63S
WASKISH        CLOUDY    63  54  72 W9        29.64S
CROOKSTON      FAIR      61  48  63 W5        29.64S
$$
  *****  WEATHER ACROSS CENTRAL AND WEST MINNESOTA  *****

CITY           SKY/WX    TMP DP  RH WIND       PRES   REMARKS
BEMIDJI        FAIR      62  52  69 SW7       29.66S
PARK RAPIDS    FAIR      62  51  67 W7        29.66S
WADENA         FAIR      61  54  77 W7        29.68S
DETROIT LAKES  FAIR      63  48  59 W6        29.69R
MOORHEAD       FAIR      61  46  59 W8        29.69R
FERGUS FALLS   FAIR      59  50  72 W8        29.69R
ELBOW LAKE     FAIR      58  49  72 NW7       29.71S
MORRIS MN      FAIR      63  52  67 NW12      29.71R
STAPLES        FAIR      61  54  77 CALM      29.68S
WHEATON        FAIR      63  46  55 W10       29.73S
$$
  *****  WEATHER ELSEWHERE ACROSS MINNESOTA  *****

CITY           SKY/WX    TMP DP  RH WIND       PRES   REMARKS
DULUTH         CLOUDY    52  48  86 SE9       29.73S
INTRNTL FALLS  CLOUDY    60  52  74 VRB7      29.65F
ELY            CLOUDY    57  48  72 S3        29.72R
CLOQUET        PTSUNNY   52  46  82 SE7       29.73S
BRAINERD       FAIR      62  54  74 SW9       29.69R
HIBBING        CLOUDY    54  52  93 SE7       29.70S
ALEXANDRIA     FAIR      61  52  72 W9        29.70S
SAINT CLOUD    FAIR      63  55  75 S6        29.69S
MINNEAPOLIS    PTSUNNY   65  53  65 S9        29.73R
$$

  *****  WEATHER ACROSS SOUTH DAKOTA  *****

CITY           SKY/WX    TMP DP  RH WIND       PRES   REMARKS
SIOUX FALLS    PTSUNNY   60  50  69 NW15      29.78R
BROOKINGS      FAIR      57  49  74 NW12      29.77R
WATERTOWN      FAIR      56  48  74 NW12      29.76R
HURON          FAIR      59  46  62 NW16      29.80R
SISSETON         N/A     62  49  62 NW9       29.71R
ABERDEEN       FAIR      59  42  53 W20G26    29.76R
MITCHELL       FAIR      60  46  59 NW13      29.82R
PIERRE         FAIR      57  40  52 NW20G28   29.83R
MOBRIDGE       FAIR      56  40  55 NW20G25   29.77S
RAPID CITY     FAIR      57  35  43 N7        29.90S
$$

  *****  SOME WEATHER IN NEARBY STATES *****

CITY           SKY/WX    TMP DP  RH WIND       PRES   REMARKS
GLASGOW MT     FAIR      51  40  65 W12       29.83R
GREAT FALLS MT FAIR      48  39  71 SW6       29.96S
CHEYENNE WY    CLOUDY    46  34  62 MISG      29.99S
SCOTTSBLUFF NE FAIR      51  40  65 W7        29.96S
OMAHA NE       PTSUNNY   67  59  75 NW6       29.74R
DES MOINES IA  LGT RAIN  60  56  86 CALM      29.74R
DAVENPORT IA   FAIR      65  54  67 E17       29.75F
CHICAGO IL     PTSUNNY   64  53  67 SE7       29.86R
EAU CLAIRE WI  FAIR      66  55  67 S9        29.76R
LA CROSSE WI   FAIR      65  58  78 CALM      29.78R
$$

  *****  SOME NATIONAL WEATHER *****

CITY           SKY/WX    TMP DP  RH WIND       PRES   REMARKS
LA GUARDIA NY  CLOUDY    63  55  75 W9        29.58S
RALEIGH NC     FAIR      70  57  63 W10       29.93R
ATLANTA GA     FAIR      71  53  52 W8        30.06R
NEW ORLEANS LA FAIR      77  66  68 S16       30.00R
OKLAHOMA CITY  PTSUNNY   75  58  55 W13       29.67R
ALBUQUERQUE NM FAIR      63  13  14 S6        30.06R
SALT LAKE CITY PTSUNNY   57  39  51 NW13      29.77R
LOS ANGELES CA CLOUDY    62  53  72 CALM      29.95R
BOISE ID       CLOUDY    50  44  80 W6        29.86R
SEATTLE WA     FAIR      57  49  74 S3        29.95R
$$

*** WEATHER ACROSS MANITOBA...SASKATCHEWAN AND ONTARIO ***
                ***ONTARIO***

CITY           SKY/WX    TMP DP  RH WIND       PRES   REMARKS
GERALDTON      PTSUNNY   61  48  63 SE7       29.82F
THUNDER BAY    CLOUDY    54  46  76 E7        29.79S
SIOUX LOOKOUT  DRIZZLE   55  48  76 S9        29.67F
TORONTO        PTSUNNY   61  55  82 NW12      29.69R
BIG TROUT LK   SUNNY     63  45  51 SE9       29.67F
PICKLE LAKE    PTSUNNY   63  45  51 S12       29.71S
DRYDEN         LGT RAIN  54  52  94 S10       29.65S
KENORA         CLOUDY    57  52  82 S10       29.62S
$$
                *** MANITOBA***

CITY           SKY/WX    TMP DP  RH WIND       PRES   REMARKS
BRANDON        PTSUNNY   54  46  76 W15G24    29.55R
DAUPHIN        CLOUDY    59  48  67 W21G31    29.46R
ISLAND LAKE    NOT AVBL
PILOT MOUND      N/A     54  46  76 W9          N/A
THE PAS        LGT RAIN  48  46  93 N6        29.36R FOG
THOMPSON       CLOUDY    57  46  67 E8        29.47F
WINNIPEG       MOSUNNY   61  46  59 SW9       29.57S
LYNN LAKE      LGT RAIN  50  48  93 NE6       29.52R
CHURCHILL      CLOUDY    37  34  87 E16       29.68R
GILLAM         CLOUDY    54  39  58 VRB2      29.56F
$$
                ***SASKATCHEWAN***

CITY           SKY/WX    TMP DP  RH WIND       PRES   REMARKS
ESTEVAN        DRIZZLE   48  46  93 W23       29.66R
KINDERSLEY     PTSUNNY   48  41  76 NW9       29.76S
LLOYDMINSTER   MOSUNNY   50  41  71 NW9       29.73S
PRINCE ALBERT  CLOUDY    50  45  81 NW13      29.57R
REGINA         CLOUDY    48  43  81 W24G31    29.65R
YORKTON          N/A     54  48  82 W18G26    29.50R


USA.gov is the U.S. government's official web portal to all federal, state and local government web resources and services.